Location: White Mills Observatory
(37.5374°N, 86.0303°W)
Time: 14:34:10
(UTC-04:00)

Hubble Space Telescope - Visible Passes

Search period start: 30 May 2015 00:00
Search period end: 09 June 2015 00:00
Orbit: 542 x 546 km, 28.5° (Epoch: 29 May)

Date Brightness Start Highest point End Pass type
(mag) Time Alt. Az. Time Alt. Az. Time Alt. Az.
02 Jun 2.8 05:44:11 10° SSW 05:46:37 15° SSE 05:49:06 10° SE visible
03 Jun 2.6 05:35:02 10° SSW 05:37:48 17° SSE 05:40:36 10° SE visible
04 Jun 2.5 05:26:35 12° SSW 05:28:59 19° S 05:32:01 10° ESE visible
05 Jun 2.3 05:18:11 15° SSW 05:20:11 21° S 05:23:21 10° ESE visible
06 Jun 2.2 05:09:49 18° SSW 05:11:23 22° S 05:14:38 10° ESE visible
07 Jun 2.1 05:01:29 21° SSW 05:02:34 23° S 05:05:54 10° SE visible
08 Jun 2.0 04:53:13 22° SSW 04:53:46 23° S 04:57:06 10° SE visible
